Tracking 35030 objects as of 11-Aug-2026
HD Live streaming from Space Station
objects crossing your sky now

PEGASUS R/B(1)


PEGASUS R/B(1) is no longer on orbit


NORAD ID: 25421
Int'l Code: 1998-046J
Launch date: August 2, 1998
Source: United States (US)
Launch site: Pegasus launched from Eastern Range Air Space (ERAS)
Decay date: 1999-01-05

Note: This is a ROCKET BODY
Your satellite tracking list
Your tracking list is empty




NASA's NSSDC Master Catalog

Two Line Element Set (TLE):
1 25421U 98046J   99004.86106028 +.21248528 +10889-4 +28907-3 0  9995
2 25421 044.8948 190.1496 0016545 324.1314 035.8698 16.47716507024168
Source of the keplerian elements: AFSPC